CZ-4C DEB, 44613

Orbit data source: Space-Track

CZ-4C DEB, 44613 is space debris in LEO originally from a launch on Tue, 14 Nov 2017 UTC launched from the Taiyaun Space Center, China (TSC). Debris objects in space refer to the collection of defunct objects orbiting the Earth. Examples of debris include non-operational satellites, rocket bodies, and fragments generated from explosions, collisions, or faulty payload assembly.

Loading next visibility...
CZ-4C DEB details
Identifier
44613, 2017-072D
Orbit
LEO
Last TLE update3 days ago
Origin
Flag of CNCASC (CN / PRC)
ManufacturerUnknown
MissionSpacecraft
Bus & MotorUnknown
MassUnknown
Launch date (UTC)
2017-11-14 (7 years ago)
Launch vehicleUnknown
Launch site
Taiyaun Space Center, China (TSC)
Object type
Payload
Rocket body
Debris
Shape & HBRUnknown
Radar Cross SectionSmall (<0.1 m²)

Expand to show TLE details & history

TLE from 3 days ago
0 CZ-4C DEB
1 44613U 17072D   24344.05214373  .00000690  00000-0  57855-3 0  9995
2 44613  98.5609  62.3077 0231223  54.2926 307.9505 13.79424476341388
Epoch: 2024-12-09T01:15Z
Definitive object data (Epoch: 2024-12-09T01:15:05.218Z)
Latitude-0.00001°
Longitude-34.74511°
Altitude866.836 km
Speed7.47 km/s
True Right ascension04h 09m 13s
True Declination0° 00' 00"
Sunlit
Object was in full shadow at TLE epoch
Visualization TLE readout
Latitude-18.86003°
Longitude144.9182°
Altitude1,122.656 km
Speed7.216 km/s
Apparent Right ascension13h 22m 25s
Apparent Declination-43° 54' 01"
Sunlit
Object is in daylight
Visualization observer readout
Local Sidereal Time20:29:12
Azimuth239.967° WSW
Elevation-37.136°
Doppler factor1
Orbital elements
Apogee altitude1,132.88 km
Perigee altitude793.386 km
Semi-major axis7,341.27 km
Eccentricity0.0231223
Inclination98.5609°
RAAN62.3077°
Arg. of periapsis54.2926°
True anomaly305.82387°
Mean anomaly307.9505°
Eccentric anomaly306.89094°
Mean motion3.45053 °/min
BSTAR0.00057855
Orbital period104.33 mins
Loading maneuver chart data...
Loading historical data...
Loading historical data...
Loading historical data...
Loading historical data...
Loading historical data...
Loading historical data...
Loading historical data...
Other satellites on launch #72 in the year 2017 (2017-11-14 UTC)

CZ-4C DEB Visibility forecast

Observer location: undefined°, undefined

Span
Click to sort rows by Start time (UTC) header in descending order
Start Az.
Max El. time (UTC)
Max El. Az.
Max El.
End time (UTC)
End Az.
7 mins2024-12-12 04:15:14.958Z110.613° ESE2024-12-12 04:18:14.958Z72.746° E20.333°2024-12-12 04:22:14.958Z18.43° NNE
8 mins2024-12-12 05:58:14.958Z199.069° SSW2024-12-12 06:01:14.958Z250.644° W33.586°2024-12-12 06:06:14.958Z331.367° NNW
6 mins2024-12-12 16:55:14.958Z68.014° E2024-12-12 16:57:14.958Z91.24° ESE16.99°2024-12-12 17:01:14.958Z131.906° SE
10 mins2024-12-12 18:36:14.958Z5.31° NNE2024-12-12 18:41:14.958Z258.118° W42.157°2024-12-12 18:46:14.958Z206.624° SW
|